Weather History for Monroe, MI

Change the Weather History Date:

Sunday, January 13, 2013

  Actual Average Record
Temperature  
Mean Temperature 44 °F -  
Max Temperature 53 °F 30 °F 61 °F (1950)
Min Temperature 35 °F 16 °F -6 °F (1977)
Degree Days  
Heating Degree Days 21    
Moisture  
Dew Point 41 °F    
Average Humidity 92    
Maximum Humidity 100    
Minimum Humidity 87    
Precipitation  
Precipitation 0.00 in - - ()
Sea Level Pressure  
Sea Level Pressure 29.85 in    
Wind  
Wind Speed 9 mph (NW)    
Max Wind Speed 23 mph    
Max Gust Speed 29 mph    
Visibility 6 miles    
Events Rain    
Averages and records for this station are not official NWS values.
T = Trace of Precipitation, MM = Missing Value Source: NWS Daily Summary

Daily Weather History Graph

Daily Weather History Graph

Search for Another Location

Airport:

Trip Planner

Search our weather history database for the weather conditions in past years. The results will help you decide how hot, cold, wet, or windy it might be!

Date:

Astronomy

Jan. 13, 2013 Rise Set
Actual Time 7:59 AM EST 5:25 PM EST
Civil Twilight 7:28 AM EST 5:56 PM EST
Nautical Twilight 6:54 AM EST 6:31 PM EST
Astronomical Twilight 6:20 AM EST 7:04 PM EST
Moon 8:55 AM EST (1/13) 8:06 PM EST (1/13)
Length of Visible Light 10h 27m
Length of Day
9h 25m
Waxing Crescent, 5% of the Moon is Illuminated
Jan 13
Waxing Crescent
Jan 18
First Quarter
Jan 26
Full
Feb 3
Last Quarter
Feb 10
New

Hourly Weather History & Observations

Time (EST) Temp. Windchill Dew Point Humidity Pressure Visibility Wind Dir Wind Speed Gust Speed Precip Events Conditions
12:11 AM 51.8 °F - 51.8 °F 100% 29.77 in 1.5 mi East 8.1 mph - N/A Rain Rain
12:31 AM 51.8 °F - 51.8 °F 100% 29.77 in 2.5 mi East 8.1 mph - N/A Rain Rain
12:51 AM 51.8 °F - 51.8 °F 100% 29.76 in 3.0 mi NNE 4.6 mph - N/A Rain Rain
1:11 AM 51.8 °F - 51.8 °F 100% 29.73 in 2.5 mi NE 8.1 mph - N/A Rain Rain
1:31 AM 53.6 °F - 51.8 °F 94% 29.74 in 2.5 mi NE 6.9 mph - N/A Rain Heavy Rain
1:51 AM 53.6 °F - 53.6 °F 100% 29.73 in 2.5 mi NNE 8.1 mph - N/A Rain Heavy Rain
2:12 AM 53.6 °F - 53.6 °F 100% 29.73 in 2.5 mi NNE 8.1 mph - N/A Rain Heavy Rain
2:32 AM 53.6 °F - 51.8 °F 94% 29.72 in 4.0 mi North 10.4 mph - N/A Rain Heavy Rain
2:52 AM 51.8 °F - 50.0 °F 94% 29.72 in 3.0 mi North 23.0 mph 28.8 mph N/A Rain Heavy Rain
3:12 AM 46.4 °F 39.0 °F 44.6 °F 93% 29.74 in 5.0 mi North 19.6 mph 23.0 mph N/A Rain Rain
3:32 AM 44.6 °F 36.9 °F 42.8 °F 93% 29.73 in 3.0 mi North 18.4 mph 24.2 mph N/A Rain Light Rain
3:52 AM 44.6 °F 37.2 °F 42.8 °F 93% 29.72 in 10.0 mi North 17.3 mph - N/A Rain Rain
4:32 AM 44.6 °F 37.4 °F 41.0 °F 87% 29.73 in 4.0 mi NNW 16.1 mph 24.2 mph N/A Rain Rain
4:52 AM 42.8 °F 35.1 °F 41.0 °F 93% 29.75 in 7.0 mi North 16.1 mph 21.9 mph N/A Rain Rain
5:13 AM 42.8 °F 35.4 °F 41.0 °F 93% 29.71 in 4.0 mi NNE 15.0 mph 21.9 mph N/A Rain Rain
5:33 AM 42.8 °F 37.5 °F 41.0 °F 93% 29.72 in 10.0 mi NNE 9.2 mph 18.4 mph N/A Rain Light Rain
5:53 AM 42.8 °F 38.6 °F 39.2 °F 87% 29.71 in 10.0 mi NNE 6.9 mph - N/A Rain Light Rain
6:13 AM 42.8 °F 37.0 °F 39.2 °F 87% 29.77 in 10.0 mi NNW 10.4 mph - N/A   Mostly Cloudy
6:33 AM 42.8 °F 38.0 °F 39.2 °F 87% 29.78 in 10.0 mi NNW 8.1 mph - N/A   Overcast
6:53 AM 42.8 °F 37.5 °F 39.2 °F 87% 29.79 in 10.0 mi NW 9.2 mph - N/A   Overcast
7:33 AM 42.8 °F 41.1 °F 41.0 °F 93% 29.79 in 10.0 mi NNW 3.5 mph - N/A   Light Drizzle
7:53 AM 42.8 °F 39.3 °F 39.2 °F 87% 29.82 in 10.0 mi NW 5.8 mph - N/A   Overcast
8:14 AM 42.8 °F 38.6 °F 39.2 °F 87% 29.82 in 10.0 mi NW 6.9 mph - N/A   Overcast
8:34 AM 42.8 °F 41.1 °F 39.2 °F 87% 29.84 in 10.0 mi NW 3.5 mph - N/A   Overcast
8:54 AM 42.8 °F 40.1 °F 39.2 °F 87% 29.86 in 10.0 mi WNW 4.6 mph - N/A   Overcast
9:14 AM 42.8 °F - 39.2 °F 87% 29.85 in 10.0 mi Calm Calm - N/A   Overcast
9:34 AM 42.8 °F - 39.2 °F 87% 29.85 in 10.0 mi Calm Calm - N/A   Overcast
9:54 AM 42.8 °F - 39.2 °F 87% 29.85 in 10.0 mi Calm Calm - N/A   Overcast
10:14 AM 42.8 °F - 39.2 °F 87% 29.85 in 10.0 mi Calm Calm - N/A   Overcast
10:34 AM 42.8 °F 39.3 °F 41.0 °F 93% 29.86 in 10.0 mi West 5.8 mph - N/A   Overcast
10:54 AM 42.8 °F 38.6 °F 41.0 °F 93% 29.87 in 2.5 mi West 6.9 mph - N/A   Drizzle
11:14 AM 42.8 °F 40.1 °F 41.0 °F 93% 29.86 in 2.0 mi WSW 4.6 mph - N/A   Light Drizzle
11:35 AM 42.8 °F 38.6 °F 41.0 °F 93% 29.86 in 2.0 mi West 6.9 mph - N/A Rain Rain
11:55 AM 42.8 °F 37.5 °F 41.0 °F 93% 29.87 in 1.5 mi West 9.2 mph - N/A   Drizzle
12:15 PM 42.8 °F 38.0 °F 41.0 °F 93% 29.86 in 1.8 mi West 8.1 mph - N/A   Light Drizzle
12:55 PM 42.8 °F 37.5 °F 39.2 °F 87% 29.85 in 7.0 mi WNW 9.2 mph - N/A   Overcast
1:15 PM 42.8 °F 37.5 °F 39.2 °F 87% 29.85 in 10.0 mi WNW 9.2 mph - N/A   Overcast
1:35 PM 42.8 °F 36.6 °F 39.2 °F 87% 29.86 in 10.0 mi WNW 11.5 mph - N/A   Overcast
1:55 PM 42.8 °F 38.0 °F 39.2 °F 87% 29.86 in 5.0 mi WNW 8.1 mph - N/A   Overcast
2:15 PM 42.8 °F 38.6 °F 39.2 °F 87% 29.84 in 5.0 mi WNW 6.9 mph - N/A   Overcast
2:35 PM 42.8 °F 39.3 °F 39.2 °F 87% 29.83 in 7.0 mi NW 5.8 mph - N/A   Overcast
2:55 PM 42.8 °F - 39.2 °F 87% 29.82 in 10.0 mi Calm Calm - N/A   Overcast
3:16 PM 42.8 °F 40.1 °F 39.2 °F 87% 29.85 in 10.0 mi NW 4.6 mph - N/A   Overcast
3:31 PM 42.8 °F 38.0 °F 39.2 °F 87% 29.86 in 10.0 mi WNW 8.1 mph - N/A   Overcast
3:51 PM 42.8 °F 39.3 °F 39.2 °F 87% 29.88 in 5.0 mi NNW 5.8 mph - N/A   Overcast
4:11 PM 41.0 °F 37.1 °F 39.2 °F 93% 29.89 in 1.8 mi NW 5.8 mph - N/A   Light Drizzle
4:51 PM 41.0 °F 36.4 °F 39.2 °F 93% 29.91 in 1.5 mi NNW 6.9 mph - N/A Rain Light Rain
5:11 PM 41.0 °F 35.8 °F 39.2 °F 93% 29.92 in 3.0 mi WNW 8.1 mph - N/A Rain Rain
5:51 PM 39.2 °F 35.0 °F 39.2 °F 100% 29.90 in 2.5 mi NNW 5.8 mph - N/A Rain Heavy Rain
6:12 PM 39.2 °F - 37.4 °F 93% 29.91 in 5.0 mi Calm Calm - N/A Rain Rain
6:32 PM 39.2 °F 37.0 °F 39.2 °F 100% 29.90 in 7.0 mi NNW 3.5 mph - N/A Rain Light Rain
6:52 PM 39.2 °F 34.2 °F 39.2 °F 100% 29.92 in 4.0 mi WNW 6.9 mph - N/A Rain Rain
7:12 PM 39.2 °F 35.0 °F 37.4 °F 93% 29.91 in 3.0 mi NW 5.8 mph - N/A Rain Light Rain
7:32 PM 39.2 °F 35.9 °F 37.4 °F 93% 29.90 in 4.0 mi WNW 4.6 mph - N/A   Drizzle
7:52 PM 39.2 °F 33.6 °F 37.4 °F 93% 29.91 in 3.0 mi WNW 8.1 mph - N/A Rain Rain
8:12 PM 39.2 °F 33.0 °F 37.4 °F 93% 29.93 in 3.0 mi West 9.2 mph - N/A Rain Rain
8:32 PM 37.4 °F 30.8 °F 37.4 °F 100% 29.93 in 5.0 mi West 9.2 mph - N/A   Light Drizzle
8:52 PM 37.4 °F 30.3 °F 37.4 °F 100% 29.93 in 4.0 mi West 10.4 mph - N/A   Drizzle
9:12 PM 37.4 °F 29.3 °F 37.4 °F 100% 29.94 in 3.0 mi WNW 12.7 mph - N/A   Drizzle
9:33 PM 37.4 °F 28.9 °F 35.6 °F 93% 29.96 in 5.0 mi WNW 13.8 mph - N/A   Overcast
9:53 PM 37.4 °F 28.2 °F 35.6 °F 93% 29.97 in 4.0 mi West 16.1 mph 21.9 mph N/A Rain Light Rain
10:13 PM 35.6 °F 27.1 °F 35.6 °F 100% 29.97 in 5.0 mi WNW 12.7 mph 20.7 mph N/A   Light Drizzle
10:33 PM 35.6 °F 28.0 °F 33.8 °F 93% 29.97 in 10.0 mi West 10.4 mph - N/A   Overcast
10:53 PM 35.6 °F 27.1 °F 33.8 °F 93% 29.99 in 10.0 mi West 12.7 mph - N/A   Overcast
11:13 PM 35.6 °F 28.0 °F 33.8 °F 93% 30.01 in 10.0 mi West 10.4 mph - N/A   Overcast
11:33 PM 35.6 °F 26.6 °F 32.0 °F 87% 30.02 in 10.0 mi West 13.8 mph - N/A   Overcast
11:53 PM 35.6 °F 26.6 °F 32.0 °F 87% 30.03 in 10.0 mi WNW 13.8 mph 18.4 mph N/A   Overcast